Weather History for Mount Carmel, IL

Change the Weather History Date:

Saturday, January 5, 2013

  Actual Average (KLWV) Record (KLWV)
Temperature  
Mean Temperature 26 °F 31 °F  
Max Temperature 37 °F 39 °F 59 °F (1998)
Min Temperature 14 °F 23 °F 0 °F (1999)
Degree Days  
Heating Degree Days 40 34  
Month to date heating degree days 170  
Since 1 July heating degree days 1969  
Cooling Degree Days 0 0  
Month to date cooling degree days 0  
Year to date cooling degree days 0  
Moisture  
Dew Point 26 °F    
Average Humidity 87    
Maximum Humidity 100    
Minimum Humidity 75    
Precipitation  
Precipitation 0.00 in 0.09 in 1.94 in (2005)
Month to date precipitation 0.47  
Year to date precipitation 0.47  
Sea Level Pressure  
Sea Level Pressure 30.27 in    
Wind  
Wind Speed 3 mph (SSW)    
Max Wind Speed 14 mph    
Max Gust Speed -    
Visibility 6 miles    
Events Fog , Rain , Snow    
T = Trace of Precipitation, MM = Missing Value Source: NWS Daily Summary

Daily Weather History Graph

Daily Weather History Graph

Search for Another Location

Airport:

Trip Planner

Search our weather history database for the weather conditions in past years. The results will help you decide how hot, cold, wet, or windy it might be!

Date:

Astronomy

Jan. 05, 2013 Rise Set
Actual Time 7:09 AM CST 4:44 PM CST
Civil Twilight 6:39 AM CST 5:13 PM CST
Nautical Twilight 6:06 AM CST 5:46 PM CST
Astronomical Twilight 5:34 AM CST 6:18 PM CST
Moon 12:17 AM CST (1/5) 11:31 AM CST (1/5)
Length of Visible Light 10h 34m
Length of Day
9h 35m
Last Quarter, 44% of the Moon is Illuminated
Jan 5
Last Quarter
Jan 11
New
Jan 18
First Quarter
Jan 26
Full
Feb 3
Last Quarter

Hourly Weather History & Observations

Time (CST) Temp. Windchill Dew Point Humidity Pressure Visibility Wind Dir Wind Speed Gust Speed Precip Events Conditions
12:15 AM 23.0 °F - 21.2 °F 93% 30.35 in 7.0 mi Calm Calm - N/A   Clear
12:35 AM 23.0 °F - 23.0 °F 100% 30.35 in 7.0 mi Calm Calm - N/A   Clear
12:55 AM 23.0 °F - 23.0 °F 100% 30.34 in 7.0 mi Calm Calm - N/A   Clear
1:15 AM 19.4 °F - 17.6 °F 93% 30.34 in 4.0 mi Calm Calm - N/A   Clear
1:35 AM 17.6 °F - 14.0 °F 86% 30.35 in 2.5 mi Calm Calm - N/A   Clear
1:55 AM 14.0 °F - 12.2 °F 93% 30.35 in 1.0 mi Calm Calm - N/A   Mist
2:15 AM 15.8 °F - 14.0 °F 93% 30.36 in 0.2 mi Calm Calm - N/A Fog Light Freezing Fog
2:35 AM 17.6 °F - 14.0 °F 86% 30.36 in 0.2 mi Calm Calm - N/A Fog Light Freezing Fog
2:55 AM 14.0 °F - 12.2 °F 93% 30.35 in 0.2 mi Calm Calm - N/A Fog Light Freezing Fog
3:35 AM 19.4 °F - 17.6 °F 93% 30.35 in 0.2 mi Calm Calm - N/A Fog Light Freezing Fog
3:55 AM 17.6 °F - 14.0 °F 86% 30.35 in 0.2 mi Calm Calm - N/A Fog Light Freezing Fog
4:15 AM 17.6 °F - 14.0 °F 86% 30.34 in 0.2 mi Calm Calm - N/A Fog Light Freezing Fog
4:35 AM 17.6 °F - 15.8 °F 93% 30.34 in 0.2 mi Calm Calm - N/A Fog Light Freezing Fog
4:55 AM 17.6 °F - 14.0 °F 86% 30.35 in 0.2 mi Calm Calm - N/A Fog Light Freezing Fog
5:15 AM 19.4 °F - 17.6 °F 93% 30.34 in 0.2 mi Calm Calm - N/A Fog Light Freezing Fog
5:35 AM 14.0 °F - 10.4 °F 86% 30.34 in 0.2 mi Calm Calm - N/A Fog Light Freezing Fog
5:55 AM 15.8 °F - 14.0 °F 93% 30.35 in 0.2 mi Calm Calm - N/A Fog Light Freezing Fog
6:15 AM 19.4 °F - 17.6 °F 93% 30.34 in 0.2 mi Calm Calm - N/A Fog Light Freezing Fog
6:35 AM 15.8 °F - 14.0 °F 93% 30.33 in 0.2 mi Calm Calm - N/A Fog Light Freezing Fog
6:55 AM 21.2 °F - 19.4 °F 93% 30.34 in 0.2 mi Calm Calm - N/A Fog Light Freezing Fog
7:15 AM 17.6 °F - 15.8 °F 93% 30.33 in 1.0 mi Calm Calm - N/A   Mist
7:35 AM 17.6 °F - 15.8 °F 93% 30.34 in 0.5 mi Calm Calm - N/A Fog Light Freezing Fog
7:55 AM 19.4 °F - 17.6 °F 93% 30.34 in 0.5 mi Calm Calm - N/A Fog Light Freezing Fog
8:15 AM 21.2 °F - 19.4 °F 93% 30.35 in 0.8 mi Calm Calm - N/A   Mist
8:35 AM 23.0 °F - 21.2 °F 93% 30.34 in 1.8 mi Calm Calm - N/A   Mist
8:55 AM 23.0 °F - 23.0 °F 100% 30.34 in 2.5 mi Calm Calm - N/A   Clear
9:15 AM 26.6 °F - 23.0 °F 86% 30.34 in 5.0 mi Calm Calm - N/A   Clear
9:55 AM 30.2 °F - 28.4 °F 93% 30.35 in 7.0 mi Calm Calm - N/A   Clear
10:15 AM 32.0 °F - 32.0 °F 100% 30.35 in 10.0 mi Calm Calm - N/A   Clear
10:55 AM 33.8 °F - 32.0 °F 93% 30.32 in 10.0 mi Calm Calm - N/A   Scattered Clouds
11:15 AM 35.6 °F 29.9 °F 32.0 °F 87% 30.32 in 10.0 mi SW 6.9 mph - N/A   Mostly Cloudy
11:35 AM 35.6 °F 28.0 °F 30.2 °F 81% 30.30 in 10.0 mi SW 10.4 mph - N/A   Overcast
11:55 AM 37.4 °F 30.8 °F 30.2 °F 75% 30.28 in 10.0 mi SW 9.2 mph - N/A   Overcast
12:15 PM 37.4 °F 29.8 °F 30.2 °F 75% 30.27 in 10.0 mi SW 11.5 mph - N/A   Overcast
12:35 PM 37.4 °F 30.8 °F 30.2 °F 75% 30.26 in 10.0 mi SW 9.2 mph - N/A   Overcast
12:55 PM 37.4 °F 28.9 °F 30.2 °F 75% 30.25 in 10.0 mi SW 13.8 mph - N/A   Overcast
1:15 PM 37.4 °F 29.8 °F 30.2 °F 75% 30.25 in 10.0 mi SW 11.5 mph - N/A   Overcast
1:35 PM 37.4 °F 29.8 °F 32.0 °F 81% 30.24 in 5.0 mi WSW 11.5 mph - N/A Snow Light Snow
1:55 PM 37.4 °F 31.4 °F 32.0 °F 81% 30.23 in 10.0 mi SSW 8.1 mph - N/A   Overcast
2:15 PM 37.4 °F 29.8 °F 32.0 °F 81% 30.23 in 10.0 mi SSW 11.5 mph - N/A Rain Light Rain
2:35 PM 37.4 °F 30.3 °F 32.0 °F 81% 30.22 in 10.0 mi South 10.4 mph - N/A   Overcast
2:55 PM 35.6 °F 28.0 °F 32.0 °F 87% 30.22 in 10.0 mi South 10.4 mph - N/A   Overcast
3:15 PM 37.4 °F 30.8 °F 32.0 °F 81% 30.21 in 10.0 mi South 9.2 mph - N/A   Overcast
3:35 PM 37.4 °F 31.4 °F 32.0 °F 81% 30.22 in 10.0 mi SSW 8.1 mph - N/A   Overcast
3:55 PM 37.4 °F 32.8 °F 32.0 °F 81% 30.21 in 10.0 mi SSW 5.8 mph - N/A   Overcast
4:15 PM 37.4 °F 32.1 °F 32.0 °F 81% 30.21 in 10.0 mi South 6.9 mph - N/A   Overcast
4:55 PM 35.6 °F 30.7 °F 32.0 °F 87% 30.21 in 10.0 mi South 5.8 mph - N/A   Overcast
5:15 PM 35.6 °F 29.9 °F 32.0 °F 87% 30.21 in 10.0 mi South 6.9 mph - N/A   Overcast
5:35 PM 35.6 °F 29.2 °F 32.0 °F 87% 30.22 in 10.0 mi South 8.1 mph - N/A   Mostly Cloudy
5:55 PM 35.6 °F 29.2 °F 32.0 °F 87% 30.21 in 10.0 mi South 8.1 mph - N/A   Overcast
6:15 PM 35.6 °F 30.7 °F 32.0 °F 87% 30.21 in 10.0 mi South 5.8 mph - N/A   Overcast
6:35 PM 35.6 °F 30.7 °F 32.0 °F 87% 30.21 in 10.0 mi South 5.8 mph - N/A   Overcast
6:55 PM 35.6 °F 29.9 °F 32.0 °F 87% 30.21 in 10.0 mi SSW 6.9 mph - N/A   Overcast
7:15 PM 37.4 °F 30.8 °F 32.0 °F 81% 30.21 in 10.0 mi SSW 9.2 mph - N/A   Overcast
7:55 PM 37.4 °F 30.8 °F 32.0 °F 81% 30.20 in 10.0 mi SSW 9.2 mph - N/A   Overcast
8:15 PM 37.4 °F 31.4 °F 32.0 °F 81% 30.19 in 10.0 mi SSW 8.1 mph - N/A   Overcast
8:35 PM 37.4 °F 32.1 °F 32.0 °F 81% 30.19 in 10.0 mi SSW 6.9 mph - N/A   Overcast
8:55 PM 37.4 °F 31.4 °F 32.0 °F 81% 30.19 in 10.0 mi SSW 8.1 mph - N/A   Overcast
9:15 PM 37.4 °F 30.8 °F 32.0 °F 81% 30.19 in 10.0 mi SSW 9.2 mph - N/A   Overcast
9:35 PM 37.4 °F 30.8 °F 32.0 °F 81% 30.18 in 10.0 mi SSW 9.2 mph - N/A   Overcast
9:55 PM 37.4 °F 30.3 °F 32.0 °F 81% 30.17 in 10.0 mi SSW 10.4 mph - N/A   Overcast
10:15 PM 37.4 °F 29.3 °F 32.0 °F 81% 30.17 in 10.0 mi SSW 12.7 mph - N/A   Overcast
10:35 PM 37.4 °F 29.3 °F 32.0 °F 81% 30.17 in 10.0 mi SSW 12.7 mph - N/A   Overcast
11:15 PM 37.4 °F 29.8 °F 32.0 °F 81% 30.15 in 10.0 mi SW 11.5 mph - N/A   Overcast
11:35 PM 37.4 °F 29.3 °F 32.0 °F 81% 30.14 in 10.0 mi SW 12.7 mph - N/A   Overcast
11:55 PM 37.4 °F 29.3 °F 32.0 °F 81% 30.14 in 10.0 mi SW 12.7 mph - N/A   Overcast